TIME,�g��[���C[MJ/h],����[MJ/h],�Ɩ�[MJ/h],�~�[[MJ/h],�①��[MJ/h],��y���[MJ/h],�Ǝ��q��[MJ/h],���̑�[MJ/h],�����G�l���M�[[MJ/h]
2003/9/1 0:00,0,0,0.3881,0.0873,0.8813,0.5213,0.0337,0.5822,0
2003/9/1 0:15,0,0,0.3408,0.0976,1.1434,0.3384,0.0337,0.5083,0
2003/9/1 0:30,0,0,0,0.089,0.9495,0.1701,0.0338,0.5224,0
2003/9/1 0:45,0,0,0,0.1032,0.9291,0.1679,0.1041,0.5322,0
2003/9/1 1:00,0,0,0,0.0876,0.887,0.168,0.0337,0.5213,0
2003/9/1 1:15,0,0,0,0.1025,0.5185,0.1689,0.034,0.5233,0
2003/9/1 1:30,0,0,0,0.0896,0.7056,0.1675,0.0333,0.5113,0
2003/9/1 1:45,0,0,0,0.0899,0.9055,0.1679,0.0337,0.5124,0
2003/9/1 2:00,0,0,0.0209,0.1044,0.8823,0.1696,0.0336,0.5119,0
2003/9/1 2:15,0,0,0.0156,0.0939,0.5941,0.1744,0.0337,0.5175,0
2003/9/1 2:30,0,0,0,0.0896,0.6471,0.1754,0.0338,0.5183,0
2003/9/1 2:45,0,0,0,0.1053,0.554,0.1732,0.1067,0.5268,0
2003/9/1 3:00,0,0,0,0.0848,0.6549,0.1727,0.0337,0.5102,0
2003/9/1 3:15,0,0,0,0.1051,0.5848,0.1729,0.0336,0.5145,0
2003/9/1 3:30,0,0,0,0.0888,0.6551,0.1731,0.0336,0.5162,0
2003/9/1 3:45,0,0,0,0.0979,0.8489,0.1747,0.0338,0.5181,0
2003/9/1 4:00,0,0,0,0.0959,0.8016,0.1744,0.0337,0.5204,0
2003/9/1 4:15,0,0,0,0.1001,0.178,0.176,0.034,0.5134,0
2003/9/1 4:30,0,0,0,0.0912,0.6009,0.1729,0.0334,0.5265,0
2003/9/1 4:45,0,0,0,0.0988,0.8722,0.1704,0.0939,0.5232,0
2003/9/1 5:00,0,0,0,0.0962,0.8307,0.1692,0.0337,0.5157,0
2003/9/1 5:15,0,0,0,0.087,0.48,0.1704,0.0334,0.519,0
2003/9/1 5:30,0,0,0,0.102,0.6152,0.1682,0.0334,0.5118,0
2003/9/1 5:45,0,0,0,0.0973,0.5073,0.1668,0.0333,0.5056,0
2003/9/1 6:00,0,0,0,0.0874,0.7076,0.1669,0.0333,0.5064,0
2003/9/1 6:15,0,0,0,0.1044,0.7017,0.1676,0.1021,0.491,0
2003/9/1 6:30,0,0,0.0792,0.0834,0.8454,0.3498,0.0343,0.4905,0
2003/9/1 6:45,0,0,0.1519,0.5403,0.8165,0.4056,0.0331,0.5789,0
2003/9/1 7:00,0,0,0.3119,0,0.661,0.4404,0.033,0.4504,0
2003/9/1 7:15,0,0,0.0734,0,0.6543,0.1886,0.0334,0.4448,0
2003/9/1 7:30,0,0,0.0009,0,0.4959,0.177,0.1094,0.4464,0
2003/9/1 7:45,0,0,0,0,0.6486,0.1751,0.0337,0.4478,0
2003/9/1 8:00,0,0,0,0,0.755,0.1722,0.0334,0.4298,0
2003/9/1 8:15,0,0,0,0,0.8297,0.1705,0.0333,0.4329,0
2003/9/1 8:30,0,0,0,0,0.6398,0.1967,0.0333,0.4405,0
2003/9/1 8:45,0,0,0,0.446,0.4831,0.4059,0.0996,0.4288,0
2003/9/1 9:00,0,0,0,0,0.7191,0.4097,0.0337,0.4169,0
2003/9/1 9:15,0,0,0,0,0.9053,0.413,0.0338,0.6659,0
2003/9/1 9:30,0,0,0.1462,0,0.7714,0.4084,0.0347,0.429,0
2003/9/1 9:45,0,0,0.5429,0,0.6296,0.4103,0.0336,0.5399,0
2003/9/1 10:00,0,0,0,0,0.8531,0.4094,0.034,0.5507,0
2003/9/1 10:15,0,0,0,0,0.6349,0.2254,0.1087,0.4157,0
2003/9/1 10:30,0,0,0,0,0.5678,0.175,0.0336,0.4196,0
2003/9/1 10:45,0,0,0,0,0.8736,0.1744,0.0337,0.4362,0
2003/9/1 11:00,0,0,0,0,0.8104,0.1738,0.0336,0.4382,0
2003/9/1 11:15,0,0,0,0,0.9793,0.1755,0.0336,0.4357,0
2003/9/1 11:30,0,0,0,0,1.1039,0.1764,0.0337,0.4368,0
2003/9/1 11:45,0,0,0,0,0.8785,0.1748,0.0334,0.4415,0
2003/9/1 12:00,0,0,0,0,0.8859,0.2012,0.1032,0.4514,0
2003/9/1 12:15,0,0,0,0,0.8634,0.1751,0.0337,0.4421,0
2003/9/1 12:30,0,0,0,0,0.8084,0.1732,0.0333,0.4379,0
2003/9/1 12:45,0,0,0,0,0.848,0.1735,0.0334,0.4396,0
2003/9/1 13:00,0,0,0,0,0.894,0.1748,0.0337,0.4404,0
2003/9/1 13:15,0,0,0,0,0.6597,0.1747,0.0336,0.4448,0
2003/9/1 13:30,0,0,0,0,0.5435,0.1741,0.0336,0.4412,0
2003/9/1 13:45,0,0,0,0,0.8453,0.1734,0.0334,0.4298,0
2003/9/1 14:00,0,0,0,0,0.8358,0.1742,0.1054,0.4206,0
2003/9/1 14:15,0,0,0,0,0.6437,0.1742,0.0334,0.437,0
2003/9/1 14:30,0,0,0,0,0.5476,0.1742,0.0337,0.4411,0
2003/9/1 14:45,0,0,0,0,0.8457,0.1737,0.0334,0.429,0
2003/9/1 15:00,0,0,0,0,0.8319,0.1741,0.0337,0.4308,0
2003/9/1 15:15,0,0,0,0,0.6869,0.1742,0.0336,0.4353,0
2003/9/1 15:30,0,0,0,0,0.5223,0.1768,0.0337,0.4422,0
2003/9/1 15:45,0,0,0,0,0.8528,0.1773,0.034,0.436,0
2003/9/1 16:00,0,0,0,0,0.8414,0.176,0.0831,0.4343,0
2003/9/1 16:15,0,0,0,0,0.7507,0.177,0.034,0.4425,0
2003/9/1 16:30,0,0,0,0,0.4699,0.1777,0.034,0.4522,0
2003/9/1 16:45,0,0,0,0,0.8401,0.1764,0.034,0.4357,0
2003/9/1 17:00,0,0,0,0,0.8634,0.1778,0.0341,0.4398,0
2003/9/1 17:15,0,0,0,0,0.8198,0.176,0.034,0.4501,0
2003/9/1 17:30,0,0,0.0949,0,0.4863,0.1771,0.1093,0.4441,0
2003/9/1 17:45,0,0,0.5702,0,0.7416,0.1735,0.0336,0.4385,0
2003/9/1 18:00,0,0,0.6356,0,0.8709,0.1732,0.0336,0.4612,0
2003/9/1 18:15,0,0,1.0715,0,0.8238,0.2828,0.0337,0.536,0
2003/9/1 18:30,0,0,1.1498,0,0.5746,0.3853,0.0338,0.5122,0
2003/9/1 18:45,0,0,1.1491,0,0.6431,0.3835,0.0336,0.5207,0
2003/9/1 19:00,0,0,1.1559,0,0.6111,0.3833,0.034,0.5027,0
2003/9/1 19:15,0,0,0.6823,0,0.5934,0.4503,0.0338,0.4516,0
2003/9/1 19:30,0,0,0.6526,0,0.6375,0.4856,0.0338,0.4643,0
2003/9/1 19:45,0,0,0.6512,0,0.7515,0.4752,0.0341,0.4584,0
2003/9/1 20:00,0,0,0.6502,0,0.8715,0.4694,0.034,0.4569,0
2003/9/1 20:15,0,0,0.6503,0,0.8436,0.4667,0.1008,0.4594,0
2003/9/1 20:30,0,0,0.6499,0,0.5463,0.4686,0.0341,0.4719,0
2003/9/1 20:45,0,0,0.6493,0,0.6723,0.4707,0.034,0.4687,0
2003/9/1 21:00,0,0,0.5898,0,0.8554,0.4684,0.0341,0.5331,0
2003/9/1 21:15,0,0,0.4346,0,0.7762,0.4231,0.0338,0.492,0
2003/9/1 21:30,0,0,0.435,0,0.5026,0.4094,0.0337,0.4742,0
2003/9/1 21:45,0,0,0.435,0,0.8976,0.4107,0.0338,0.4772,0
2003/9/1 22:00,0,0,0.4347,0,0.8876,0.4082,0.0336,0.4805,0
2003/9/1 22:15,0,0,0.6984,0,0.8539,0.4098,0.0338,0.5044,0
2003/9/1 22:30,0,0,0.4347,0,1.013,0.4095,0.1021,0.4651,0
2003/9/1 22:45,0,0,0.7109,0,1.1259,0.4101,0.0338,0.4412,0
2003/9/1 23:00,0,0,1.1274,0,0.9301,0.4121,0.0334,0.4177,0
2003/9/1 23:15,0,0,0.8528,0,0.6709,0.41,0.0336,0.535,0
2003/9/1 23:30,0,0,0.2796,0,0.7484,0.3419,0.0337,0.5662,0
2003/9/1 23:45,0,0,0,0,0.915,0.176,0.0338,0.5371,0
2003/9/2 0:00,0,0,0,0,0.8865,0.1714,0.0336,0.5442,0
2003/9/2 0:15,0,0,0,0,0.9487,0.1738,0.1079,0.544,0
2003/9/2 0:30,0,0,0,0,0.8885,0.1715,0.0338,0.5269,0
2003/9/2 0:45,0,0,0,0,0.5315,0.1709,0.0336,0.5234,0
2003/9/2 1:00,0,0,0,0,0.6546,0.1708,0.0337,0.5174,0
2003/9/2 1:15,0,0,0,0,0.8715,0.1693,0.0337,0.528,0
2003/9/2 1:30,0,0,0,0,0.8289,0.1682,0.0337,0.5119,0
2003/9/2 1:45,0,0,0,0,0.6612,0.1669,0.0334,0.5108,0
2003/9/2 2:00,0,0,0,0,0.0976,0.1731,0.0336,0.5168,0
2003/9/2 2:15,0,0,0,0,0.78,0.1696,0.106,0.5013,0
2003/9/2 2:30,0,0,0,0,0.8654,0.1696,0.0337,0.5096,0
2003/9/2 2:45,0,0,0,0,0.8137,0.1712,0.0337,0.5044,0
2003/9/2 3:00,0,0,0,0,0.5943,0.1747,0.0338,0.5184,0
2003/9/2 3:15,0,0,0,0,0.608,0.1728,0.0338,0.5194,0
2003/9/2 3:30,0,0,0,0,0.8588,0.1708,0.0338,0.5134,0
2003/9/2 3:45,0,0,0,0,0.8404,0.1705,0.0338,0.5131,0
2003/9/2 4:00,0,0,0,0,0.6494,0.1742,0.034,0.5191,0
2003/9/2 4:15,0,0,0,0,0.5597,0.1748,0.1104,0.528,0
2003/9/2 4:30,0,0,0,0,0.5754,0.1719,0.0338,0.5131,0
2003/9/2 4:45,0,0,0,0,0.6494,0.1706,0.0338,0.5105,0
2003/9/2 5:00,0,0,0,0,0.6957,0.1704,0.0337,0.5223,0
2003/9/2 5:15,0,0,0,0,0.5229,0.1699,0.0337,0.5283,0
2003/9/2 5:30,0,0,0,0,0.8526,0.1701,0.0337,0.5014,0
2003/9/2 5:45,0,0,0,0,0.8531,0.1721,0.0336,0.4906,0
2003/9/2 6:00,0,0,0,0,0.7394,0.1716,0.0334,0.4958,0
2003/9/2 6:15,0,0,0,0,0.4648,0.1701,0.0995,0.5069,0
2003/9/2 6:30,0,0,0,0,0.8414,0.3156,0.0334,0.507,0
2003/9/2 6:45,0,0,0.0763,0,0.5348,0.4059,0.034,0.498,0
2003/9/2 7:00,0,0,0,0,0.6816,0.444,0.0333,0.527,0
2003/9/2 7:15,0,0,0.0255,0,0.8718,0.305,0.0336,0.4782,0
2003/9/2 7:30,0,0,0,0,0.8623,0.1774,0.0334,0.4419,0
2003/9/2 7:45,0,0,0,0,0.4738,0.1771,0.0338,0.452,0
2003/9/2 8:00,0,0,0,0,0.7344,0.1784,0.1053,0.435,0
2003/9/2 8:15,0,0,0,0,0.8752,0.1773,0.0337,0.4334,0
2003/9/2 8:30,0,0,0.0181,0,0.8322,0.1767,0.4411,0.4163,0
2003/9/2 8:45,0,0,0,0,0.8156,0.1747,0.0334,0.434,0
2003/9/2 9:00,0,0,0,0,0.887,0.1748,0.0334,0.4398,0
2003/9/2 9:15,0,0,0.0327,0,0.84,0.2693,0.652,0.394,0
2003/9/2 9:30,0,0,0.012,0,0.8315,0.4123,0.4542,0.4091,0
2003/9/2 9:45,0,0,0.022,0,1.1061,0.4114,0.7383,0.3989,0
2003/9/2 10:00,0,0,0.0124,0,0.97,0.3095,0.1521,0.4249,0
2003/9/2 10:15,0,0,0.0078,0,0.9948,0.1767,0.0336,0.4343,0
2003/9/2 10:30,0,0,0.467,0,0.9327,0.177,0.1094,0.433,0
2003/9/2 10:45,0,0,0.4111,0,0.9078,0.1757,0.0334,2.5917,0
2003/9/2 11:00,0,0,1.3967,0,0.8502,0.1767,0.0336,0.4624,0
2003/9/2 11:15,0,0,0,0,0.913,0.1799,0.034,0.4432,0
2003/9/2 11:30,0,0,0,0,0.8954,0.1822,0.0338,0.4431,0
2003/9/2 11:45,0,0,0,0,0.4906,0.184,0.0903,0.4406,0
2003/9/2 12:00,0,0,0,0,0.7364,0.2112,0.034,0.4376,0
2003/9/2 12:15,0,0,0,0,0.8788,0.1835,0.0343,0.4379,0
2003/9/2 12:30,0,0,0,0,0.8152,0.1837,0.0343,0.4369,0
2003/9/2 12:45,0,0,0,0,0.8732,0.1826,0.034,0.435,0
2003/9/2 13:00,0,0,0,0,0.8784,0.182,0.0338,0.4324,0
2003/9/2 13:15,0,0,0,0,0.5053,0.1817,0.0337,0.4441,0
2003/9/2 13:30,0,0,0,0,0.7193,0.1809,0.1038,0.4419,0
2003/9/2 13:45,0,0,0,0,0.8826,0.3663,0.0337,0.4202,0
2003/9/2 14:00,0,0,0,0,0.8549,0.4023,0.0336,0.4209,0
2003/9/2 14:15,0,0,0,0,0.7959,0.4068,0.0336,0.4241,0
2003/9/2 14:30,0,0,0,0,0.4684,0.4062,0.0337,0.4366,0
2003/9/2 14:45,0,0,0,0,0.8008,0.4048,0.0337,0.4242,0
2003/9/2 15:00,0,0,0,0,0.8564,0.4085,0.0338,0.4254,0
2003/9/2 15:15,0,0,0,0,0.8208,0.4051,0.0337,0.4236,0
2003/9/2 15:30,0,0,0,0,0.6097,0.4018,0.0336,0.4326,0
2003/9/2 15:45,0,0,0,0,0.5819,0.4016,0.0337,0.4293,0
2003/9/2 16:00,0,0,0,0,0.8528,0.3717,0.0336,0.4234,0
2003/9/2 16:15,0,0,0,0,0.8306,0.1724,0.0876,0.4337,0
2003/9/2 16:30,0,0,0,0,0.7019,0.1734,0.0336,0.448,0
2003/9/2 16:45,0,0,0.1803,0,0.5034,0.1748,0.0337,0.4575,0
2003/9/2 17:00,0,0,0.1231,0,0.8453,0.1731,0.034,0.4463,0
2003/9/2 17:15,0,0,0,0,0.849,0.1728,0.0336,0.4435,0
2003/9/2 17:30,0,0,0,0,0.7554,0.1771,0.034,0.4535,0
2003/9/2 17:45,0,0,0,0,0.4677,0.1773,0.0338,0.4712,0
2003/9/2 18:00,0,0,0.3662,0,0.8325,0.2863,0.0337,0.5196,0
2003/9/2 18:15,0,0,0.6627,0,0.8539,0.4068,0.0337,0.4465,0
2003/9/2 18:30,0,0,0.6767,0,0.816,0.378,0.0338,0.596,0
2003/9/2 18:45,0,0,0.6263,0,0.4939,0.3679,0.1025,0.7152,0
2003/9/2 19:00,0,0,0.7345,1.167,0.862,0.3871,0.0337,0.8605,0
2003/9/2 19:15,0,0,1.0385,0,0.8781,0.5584,0.034,0.4776,0
2003/9/2 19:30,0,0,1.031,0,0.8483,0.6284,0.034,0.4543,0
2003/9/2 19:45,0,0,0.6643,0,0.8464,0.628,0.0341,0.4736,0
2003/9/2 20:00,0,0,0.6162,0,0.9102,0.6299,0.0341,0.4766,0
2003/9/2 20:15,0,0,0.6051,0,0.8522,0.627,0.0338,0.5661,0
2003/9/2 20:30,0,0,0.6003,0,0.8899,0.6205,0.0338,0.6798,0
2003/9/2 20:45,0,0,0.5995,0,1.0115,0.5897,0.034,0.6667,0
2003/9/2 21:00,0,0,0.5992,0,1.1173,0.6205,0.0336,0.6558,0
2003/9/2 21:15,0,0,0.6885,0,0.9549,0.6212,0.0336,0.6548,0
2003/9/2 21:30,0,0,0.559,0,0.9747,0.6228,0.1047,0.6589,0
2003/9/2 21:45,0,0,0.523,0,0.9338,0.6071,0.0346,0.6807,0
2003/9/2 22:00,0,0,0.5227,0,0.8826,0.5412,0.0337,0.6677,0
2003/9/2 22:15,0,0,0.8185,0,0.9089,0.5495,0.0338,0.505,0
2003/9/2 22:30,0,0,0.5301,0,0.9249,0.5445,0.0337,0.4807,0
2003/9/2 22:45,0,0,0.527,0,0.6065,0.545,0.0334,0.52,0
2003/9/2 23:00,0,0,1.2211,0,0.704,0.541,0.0338,0.4048,0
2003/9/2 23:15,0,0,0.234,0,0.9236,0.4291,0.0338,0.5423,0
2003/9/2 23:30,0,0,0,0,0.7338,0.4267,0.0336,0.4848,0
2003/9/2 23:45,0,0,0,0,0.6113,0.3181,0.0337,0.4732,0
2003/9/3 0:00,0,0,0,0,0.879,0.3185,0.1024,0.486,0
2003/9/3 0:15,0,0,0,0,0.8614,0.3203,0.0338,0.4928,0
2003/9/3 0:30,0,0,0,0,0.8263,0.3198,0.0337,0.4726,0
2003/9/3 0:45,0,0,0,0,0.8899,0.32,0.0338,0.474,0
2003/9/3 1:00,0,0,0,0,0.8738,0.3188,0.0336,0.4722,0
2003/9/3 1:15,0,0,0,0,0.6944,0.3195,0.034,0.4791,0
2003/9/3 1:30,0,0,0,0,0.5393,0.321,0.0338,0.4764,0
2003/9/3 1:45,0,0,0,0,0.8711,0.3195,0.0338,0.4755,0
2003/9/3 2:00,0,0,0,0,0.8652,0.3188,0.0337,0.4753,0
2003/9/3 2:15,0,0,0,0,0.8218,0.3188,0.0337,0.4751,0
2003/9/3 2:30,0,0,0,0,0.862,0.3192,0.1035,0.468,0
2003/9/3 2:45,0,0,0,0,0.8997,0.3194,0.0337,0.4725,0
2003/9/3 3:00,0,0,0,0,0.8346,0.3207,0.0338,0.4789,0
2003/9/3 3:15,0,0,0,0,0.4683,0.3171,0.0334,0.474,0
2003/9/3 3:30,0,0,0,0,0.7629,0.3174,0.0334,0.4641,0
2003/9/3 3:45,0,0,0,0,0.877,0.3177,0.0334,0.4687,0
2003/9/3 4:00,0,0,0,0,0.8387,0.3184,0.0334,0.4699,0
2003/9/3 4:15,0,0,0,0,0.7213,0.3182,0.0336,0.4857,0
2003/9/3 4:30,0,0,0,0,0.4703,0.3187,0.0337,0.4787,0
2003/9/3 4:45,0,0,0,0,0.8179,0.3187,0.0336,0.4656,0
2003/9/3 5:00,0,0,0,0,0.852,0.3184,0.0337,0.4624,0
2003/9/3 5:15,0,0,0,0,0.8218,0.318,0.103,0.4562,0
2003/9/3 5:30,0,0,0,0,0.5412,0.318,0.0337,0.4631,0
2003/9/3 5:45,0,0,0,0,0.6621,0.3167,0.0334,0.4504,0
2003/9/3 6:00,0,0,0,0,0.8653,0.3156,0.0331,0.4411,0
2003/9/3 6:15,0,0,0,0,0.8364,0.3148,0.0331,0.4404,0
2003/9/3 6:30,0,0,0.0984,0,0.631,0.3663,0.0338,0.4663,0
2003/9/3 6:45,0,0,0,0.4843,0.577,0.4008,0.0333,0.6024,0
2003/9/3 7:00,0,0,0,0,0.8542,0.4388,0.0331,0.5075,0
2003/9/3 7:15,0,0,0,0,0.8637,0.4062,0.0334,0.5141,0
2003/9/3 7:30,0,0,0.1261,0,0.8338,0.2415,0.1058,0.449,0
2003/9/3 7:45,0,0,0,0,0.9217,0.3218,0.0337,0.4404,0
2003/9/3 8:00,0,0,0,0,1.1148,0.4032,0.0336,0.4326,0
2003/9/3 8:15,0,0,0,0,0.9261,0.4002,0.0333,0.4267,0
2003/9/3 8:30,0,0,0,0,0.9511,0.4166,0.0338,0.4401,0
2003/9/3 8:45,0,0,0,0,0.8994,0.3398,0.0337,0.438,0
2003/9/3 9:00,0,0,0,0,0.886,0.3195,0.0347,0.4393,0
2003/9/3 9:15,0,0,0.2033,0,0.8652,0.3208,0.0337,0.4753,0
2003/9/3 9:30,0,0,0,0,0.8758,0.239,0.034,0.491,0
2003/9/3 9:45,0,0,0,0,0.8921,0.1755,0.0336,0.4393,0
2003/9/3 10:00,0,0,0,0,0.8686,0.1787,0.0864,0.4424,0
2003/9/3 10:15,0,0,0,0,0.8882,0.1781,0.0338,0.4385,0
2003/9/3 10:30,0,0,0,0,0.9197,0.1761,0.0336,0.437,0
2003/9/3 10:45,0,0,0,0,0.6697,0.1793,0.034,0.4444,0
2003/9/3 11:00,0,0,0,0,0.5496,0.1777,0.0338,0.4411,0
2003/9/3 11:15,0,0,0,0,0.8664,0.176,0.0336,0.4283,0
2003/9/3 11:30,0,0,0,0,0.8597,0.1752,0.0337,0.4265,0
2003/9/3 11:45,0,0,0,0,0.8404,0.1765,0.0338,0.437,0
2003/9/3 12:00,0,0,0,0,0.8977,0.2081,0.0344,0.4405,0
2003/9/3 12:15,0,0,0,0,0.8927,0.1799,0.0346,0.4559,0
2003/9/3 12:30,0,0,0,0,0.5518,0.1801,0.0344,0.4594,0
2003/9/3 12:45,0,0,0,0,0.6765,0.1797,0.108,0.4402,0
2003/9/3 13:00,0,0,0,0,0.901,0.1809,0.0344,0.4428,0
2003/9/3 13:15,0,0,0,0,0.8657,0.1801,0.0344,0.4405,0
2003/9/3 13:30,0,0,0,0,0.8532,0.1803,0.0343,0.4382,0
2003/9/3 13:45,0,0,0,0,0.9197,0.1791,0.0343,0.4416,0
2003/9/3 14:00,2.0281,0,0,0,0.882,0.1786,0.0341,0.3833,0
2003/9/3 14:15,7.5447,0,0,0,0.9249,0.3982,0.0337,0.3028,0
2003/9/3 14:30,6.5694,0,0,0,0.937,0.3875,0.0336,0.3156,0
2003/9/3 14:45,6.7836,0,0,0,0.8713,0.3925,0.0333,0.2974,0
2003/9/3 15:00,7.547,0,0,0,0.9213,0.4023,0.0336,0.3018,0
2003/9/3 15:15,6.7458,0,0,0,0.9181,0.4003,0.0337,0.3149,0
2003/9/3 15:30,5.5956,0,0,0,0.8688,0.4006,0.0337,0.3138,0
2003/9/3 15:45,5.5699,0,0,0,0.9251,0.3902,0.0331,0.3079,0
2003/9/3 16:00,2.5158,0,0,0,0.9014,0.3933,0.0337,0.4118,0
2003/9/3 16:15,0,0,0,0,0.6454,0.3897,0.0341,0.4382,0
2003/9/3 16:30,0,0,0,0,0.6114,0.401,0.0341,0.4355,0
2003/9/3 16:45,0,0,0,0,0.8803,0.4042,0.0337,0.4327,0
2003/9/3 17:00,0,0,0,0.3938,0.8428,0.4078,0.0337,0.436,0
2003/9/3 17:15,0,0,0.0069,1.6432,0.8221,0.1878,0.0338,0.45,0
2003/9/3 17:30,0,0,0,0.7356,0.8699,0.1722,0.0337,0.4463,0
2003/9/3 17:45,0,0,0,0.1217,1.1222,0.177,0.0338,0.4513,0
2003/9/3 18:00,0,0,0.0511,0.0255,0.9776,0.1757,0.034,0.4797,0
2003/9/3 18:15,0,0,0.2182,0.0258,0.973,0.1776,0.0341,0.5005,0
2003/9/3 18:30,0,0,0.3564,0.0258,0.9082,0.1755,0.0338,0.4671,0
2003/9/3 18:45,0,0,0.795,0.0203,0.8863,0.1748,0.0337,0.4359,0
2003/9/3 19:00,0,0,0.8512,0,0.8587,0.2118,0.1014,0.6481,0
2003/9/3 19:15,0,0,0.8359,0,0.9189,0.1757,0.0338,0.4578,0
2003/9/3 19:30,0,0,0.8316,0,0.9357,0.176,0.034,0.4442,0
2003/9/3 19:45,0,0,0.8227,0.3201,0.9215,0.4264,0.034,0.5761,0
2003/9/3 20:00,0,0,0.6571,0,0.9095,0.5301,0.0341,0.48,0
2003/9/3 20:15,0,0,0.6565,0,0.9422,0.4209,0.0343,0.4654,0
2003/9/3 20:30,0,0,0.6553,0,0.8384,0.3141,0.0338,0.4474,0
2003/9/3 20:45,0,0,0.6588,0,0.5394,0.4143,0.0341,0.4448,0
2003/9/3 21:00,0,0,0.6579,0,0.8869,0.5278,0.0341,0.4468,0
2003/9/3 21:15,0,0,0.6592,0,0.9158,0.509,0.0341,0.4956,0
2003/9/3 21:30,0,0,0.6576,0,0.8686,0.5252,0.0338,0.4552,0
2003/9/3 21:45,0,0,0.6578,0,0.8568,0.5213,0.0341,0.4514,0
2003/9/3 22:00,0,0,0.6553,0,0.9292,0.5239,0.0333,0.4422,0
2003/9/3 22:15,0,0,0.6536,0,0.8666,0.5257,0.0336,0.4432,0
2003/9/3 22:30,0,0,0.7286,0,0.9108,0.5293,0.0336,0.4441,0
2003/9/3 22:45,0,0,0.7603,0,0.94,0.5329,0.034,0.5344,0
2003/9/3 23:00,0,0,0.6493,0,0.905,0.5298,0.0336,0.4745,0
2003/9/3 23:15,0,0,0.3757,0,0.8987,0.5335,0.0338,0.4856,0
2003/9/3 23:30,0,0,0.6428,0,0.9383,0.5288,0.0903,0.4529,0
2003/9/3 23:45,0,0,0.6276,0,0.8777,0.1869,0.034,0.5823,0
2003/9/4 0:00,0,0,0.2667,0,0.9091,0.3977,0.0334,0.5723,0
2003/9/4 0:15,0,0,0.0328,0,0.924,0.2939,0.0338,0.485,0
2003/9/4 0:30,0,0,0,0,0.878,0.1672,0.0338,0.4949,0
2003/9/4 0:45,0,0,0,0,0.9261,0.1646,0.0336,0.4893,0
2003/9/4 1:00,0,0,0,0,0.896,0.1643,0.0338,0.4916,0
2003/9/4 1:15,0,0,0,0,0.6751,0.1623,0.0336,0.4912,0
2003/9/4 1:30,0,0,0,0,0.5652,0.163,0.0337,0.4932,0
2003/9/4 1:45,0,0,0,0,0.8798,0.1623,0.0337,0.4942,0
2003/9/4 2:00,0,0,0,0,0.8836,0.1632,0.034,0.521,0
2003/9/4 2:15,0,0,0,0,0.8368,0.1637,0.0914,0.5098,0
2003/9/4 2:30,0,0,0,0,0.8641,0.1613,0.0336,0.4893,0
2003/9/4 2:45,0,0,0,0,0.886,0.1614,0.0336,0.4902,0
2003/9/4 3:00,0,0,0,0,0.8273,0.1623,0.0337,0.4905,0
2003/9/4 3:15,0,0,0,0,0.9459,0.162,0.0337,0.4939,0
2003/9/4 3:30,0,0,0,0,1.1389,0.1626,0.0338,0.4915,0
2003/9/4 3:45,0,0,0,0,0.9783,0.1636,0.0337,0.4942,0
2003/9/4 4:00,0,0,0,0,0.9956,0.1637,0.034,0.4918,0
2003/9/4 4:15,0,0,0,0,0.9344,0.1623,0.0334,0.4932,0
2003/9/4 4:30,0,0,0,0,0.8999,0.1608,0.0333,0.4886,0
2003/9/4 4:45,0,0,0,0,0.8768,0.1608,0.0334,0.4869,0
2003/9/4 5:00,0,0,0,0,0.9386,0.1606,0.0334,0.4841,0
2003/9/4 5:15,0,0,0,0,0.8783,0.161,0.1053,0.4784,0
2003/9/4 5:30,0,0,0,0,0.8749,0.1606,0.0333,0.482,0
2003/9/4 5:45,0,0,0,0,0.919,0.1611,0.0331,0.4774,0
2003/9/4 6:00,0,0,0.0147,0,0.863,0.1617,0.0331,0.4738,0
2003/9/4 6:15,0,0,0,0,0.5224,0.1637,0.0334,0.4872,0
2003/9/4 6:30,0,0,0.002,0,0.7262,0.253,0.0334,0.4887,0
2003/9/4 6:45,0,0,0.2932,0.311,0.8742,0.4018,0.0336,0.6349,0
2003/9/4 7:00,0,0,0.4075,0.1845,0.8525,0.4369,0.0331,0.5426,0
2003/9/4 7:15,0,0,0.2938,0,0.7646,0.3319,0.0334,0.5026,0
2003/9/4 7:30,0,0,0.0003,0,0.5263,0.1692,0.0336,0.4425,0
2003/9/4 7:45,0,0,0,0,0.6882,0.1714,0.109,0.4491,0
2003/9/4 8:00,0,0,0,0,0.5167,0.1704,0.034,0.4548,0
2003/9/4 8:15,0,0,0,0,0.8744,0.1683,0.0338,0.4451,0
2003/9/4 8:30,0,0,0,0,0.8888,0.1701,0.034,0.4404,0
2003/9/4 8:45,0,0,0.0003,0,0.8315,0.1678,0.0337,0.437,0
2003/9/4 9:00,0,0,0,0,0.5607,0.2098,0.0337,0.4477,0
2003/9/4 9:15,0,0,0.0138,0,0.6594,0.4056,0.5551,0.4163,0
2003/9/4 9:30,0,0,0.0298,0.5983,0.5694,0.4107,0.6709,0.3888,0
2003/9/4 9:45,0,0,0,0,0.7065,0.3469,0.0338,0.4157,0
2003/9/4 10:00,0,0,0,0,0.8201,0.1711,0.0338,0.4357,0
2003/9/4 10:15,0,0,0,0,0.8741,0.1698,0.0336,2.7701,0
2003/9/4 10:30,0,0,1.8026,0,0.9024,0.1699,0.1025,0.7616,0
2003/9/4 10:45,0,0,0,0,0.8443,0.1716,0.0338,0.5304,0
2003/9/4 11:00,0,0,0,0,0.5892,0.1711,0.034,0.4499,0
2003/9/4 11:15,0,0,0,0,0.8793,0.1696,0.0337,0.4471,0
2003/9/4 11:30,0,0,0,0,0.8777,0.1689,0.0337,0.4467,0
2003/9/4 11:45,0,0,0,0,0.806,0.1693,0.0338,0.4445,0
2003/9/4 12:00,0,0,0,0,0.8407,0.1999,0.0336,0.4419,0
2003/9/4 12:15,0,0,0,0,0.8891,0.1704,0.0338,0.4435,0
2003/9/4 12:30,0,0,0,0,0.7764,0.1702,0.0336,0.4458,0
2003/9/4 12:45,0,0,0,0,0.4713,0.1698,0.089,0.4539,0
2003/9/4 13:00,0,0,0,0,0.852,0.1699,0.0337,0.4467,0
2003/9/4 13:15,0,0,0,0,0.8814,0.1708,0.0336,0.4419,0
2003/9/4 13:30,0,0,0,0,0.8212,0.1688,0.0336,0.4416,0
2003/9/4 13:45,0,0,0,0,0.8266,0.1721,0.034,0.4474,0
2003/9/4 14:00,0,0,0,0,1.0803,0.1737,0.0338,0.445,0
2003/9/4 14:15,0,0,0,0,1.042,0.1741,0.034,0.4487,0
2003/9/4 14:30,0,0,0,0,0.922,0.1727,0.034,0.444,0
2003/9/4 14:45,0,0,0,0,0.8983,0.1722,0.1058,0.4463,0
2003/9/4 15:00,0,0,0,0,0.8607,0.1722,0.034,0.45,0
2003/9/4 15:15,0,0,0,0,0.8351,0.1719,0.034,0.4484,0
2003/9/4 15:30,0,0,0,0,0.8961,0.1716,0.034,0.4455,0
2003/9/4 15:45,0,0,0,0,0.8827,0.2755,0.0338,0.4404,0
2003/9/4 16:00,0,0,0,0,0.8762,0.3509,0.0338,0.4386,0
2003/9/4 16:15,0,0,0,0,0.9022,0.1807,0.0338,0.4419,0
2003/9/4 16:30,0,0,0.0012,0,0.7078,0.1822,0.034,0.4473,0
2003/9/4 16:45,0,0,0,0,0.5325,0.1829,0.034,0.448,0
2003/9/4 17:00,0,0,0.0071,0,0.8647,0.1764,0.0343,0.4447,0
2003/9/4 17:15,0,0,0.0629,0,0.8499,0.1735,0.0343,0.4486,0
2003/9/4 17:30,0,0,0,0,0.8024,0.1725,0.105,0.4615,0
2003/9/4 17:45,0,0,0,0,0.4751,0.3312,0.0338,0.6463,0
2003/9/4 18:00,0,0,0.033,0,0.7217,0.3735,0.0337,0.683,0
2003/9/4 18:15,0,0,0.2136,0,0.8591,0.3613,0.0337,0.6752,0
2003/9/4 18:30,0,0,0.2117,0,0.8336,0.3779,0.0336,0.6831,0
2003/9/4 18:45,0,0,0.5878,0,0.6669,0.3633,0.0336,0.7193,0
2003/9/4 19:00,0,0,0.6549,0,0.7792,0.3995,0.0337,0.7777,0
2003/9/4 19:15,0,0,0.7125,0,0.8901,0.4985,0.0337,0.7249,0
2003/9/4 19:30,0,0,0.8349,0,0.866,0.5481,0.034,0.4932,0
2003/9/4 19:45,0,0,0.6355,0,0.8459,0.5486,0.034,0.4582,0
2003/9/4 20:00,0,0,0.6096,0,0.9179,0.5413,0.103,0.4772,0
2003/9/4 20:15,0,0,0.6024,0,0.865,0.5448,0.0337,0.4546,0
2003/9/4 20:30,0,0,0.5995,0,0.8863,0.5448,0.034,0.4555,0
2003/9/4 20:45,0,0,0.5983,0,0.899,0.5472,0.0338,0.4565,0
2003/9/4 21:00,0,0,0.5966,0,0.8459,0.4216,0.0337,0.5157,0
2003/9/4 21:15,0,0,0.593,0,0.4808,0.4048,0.0338,0.4512,0
2003/9/4 21:30,0,0,0.5928,0,0.828,0.41,0.034,0.4546,0
2003/9/4 21:45,0,0,0.5939,0,0.8778,0.4116,0.0337,0.4539,0
2003/9/4 22:00,0,0,0.593,0,0.8279,0.409,0.0334,0.4468,0
2003/9/4 22:15,0,0,0.581,0,0.8567,0.4018,0.0334,0.449,0
2003/9/4 22:30,0,0,0.6244,0,0.8968,0.4049,0.0994,0.447,0
2003/9/4 22:45,0,0,0.7315,0,0.6633,0.4041,0.0338,0.5348,0
2003/9/4 23:00,0,0,0.8628,0,0.5589,0.3073,0.0338,0.4896,0
2003/9/4 23:15,0,0,0.9887,0,0.8604,0.1701,0.0334,0.5378,0
2003/9/4 23:30,0,0,0.032,0,0.8915,0.3629,0.0331,0.5517,0
2003/9/4 23:45,0,0,0.0071,0,0.8245,0.1758,0.0333,0.468,0
2003/9/5 0:00,0,0,0,0,0.8214,0.1649,0.0334,0.4804,0
2003/9/5 0:15,0,0,0,0,0.9048,0.1657,0.0334,0.4776,0
2003/9/5 0:30,0,0,0,0,1.134,0.1675,0.1017,0.4805,0
2003/9/5 0:45,0,0,0,0,0.9527,0.1665,0.0338,0.4848,0
2003/9/5 1:00,0,0,0,0,0.9305,0.1655,0.0336,0.4851,0
2003/9/5 1:15,0,0,0,0,0.8934,0.1655,0.034,0.4899,0
2003/9/5 1:30,0,0,0,0,0.8541,0.1665,0.0338,0.492,0
2003/9/5 1:45,0,0,0,0,0.8257,0.1632,0.0337,0.484,0
2003/9/5 2:00,0,0,0,0,0.8964,0.1634,0.0336,0.4851,0
2003/9/5 2:15,0,0,0,0,0.8699,0.1642,0.0337,0.4869,0
2003/9/5 2:30,0,0,0,0,0.5378,0.1676,0.0775,0.5001,0
2003/9/5 2:45,0,0,0,0,0.3748,0.1669,0.0338,0.4795,0
2003/9/5 3:00,0,0,0,0,0.7284,0.1644,0.0337,0.4716,0
2003/9/5 3:15,0,0,0,0,0.8433,0.165,0.0337,0.4751,0
2003/9/5 3:30,0,0,0,0,0.5744,0.1672,0.034,0.4919,0
2003/9/5 3:45,0,0,0,0,0.6443,0.1626,0.0334,0.4789,0
2003/9/5 4:00,0,0,0,0,0.8528,0.1621,0.1051,0.465,0
2003/9/5 4:15,0,0,0,0,0.8326,0.1627,0.0334,0.4873,0
2003/9/5 4:30,0,0,0,0,0.608,0.1633,0.0334,0.4887,0
2003/9/5 4:45,0,0,0,0,0.4306,0.164,0.0336,0.4828,0
2003/9/5 5:00,0,0,0,0,0.5501,0.1634,0.0334,0.4666,0
2003/9/5 5:15,0,0,0,0,0.8427,0.1621,0.0334,0.4716,0
2003/9/5 5:30,0,0,0,0,0.6241,0.1626,0.0333,0.482,0
2003/9/5 5:45,0,0,0,0,0.5846,0.1623,0.0333,0.4661,0
2003/9/5 6:00,0,0,0,0,0.8496,0.1644,0.1083,0.4533,0
2003/9/5 6:15,0,0,0.2792,0.8702,0.8218,0.3105,0.0334,0.542,0
2003/9/5 6:30,0,0,0.488,0.0258,0.8352,0.4026,0.0338,0.5319,0
2003/9/5 6:45,0,0,0.092,0,0.5302,0.2216,0.033,0.5181,0
2003/9/5 7:00,0,0,0,0,0.6101,0.2075,0.0331,0.5185,0
2003/9/5 7:15,0,0,0,0,0.4952,0.1705,0.0336,0.5304,0
2003/9/5 7:30,0,0,0,0,0.8556,0.1705,0.0336,0.5105,0
2003/9/5 7:45,0,0,0,0,0.8657,0.1742,0.0334,0.5111,0
2003/9/5 8:00,0,0,0,0,0.8202,0.1716,0.1086,0.5279,0
2003/9/5 8:15,0,0,0,0,0.8515,0.1698,0.0336,0.5183,0
2003/9/5 8:30,0,0,0,0,0.8749,0.1711,0.0336,0.4441,0
2003/9/5 8:45,0,0,0,0,0.5273,0.1706,0.0336,0.448,0
2003/9/5 9:00,0,0,0,0.4287,0.6443,0.2676,0.0334,0.4442,0
2003/9/5 9:15,0,0,0,0,0.8758,0.4108,0.0333,0.4232,0
2003/9/5 9:30,0,0,0,0,0.8637,0.3095,0.0338,0.4277,0
2003/9/5 9:45,0,0,0,0,0.7106,0.183,0.1017,0.4317,0
2003/9/5 10:00,0,0,0,0,0.4742,0.1827,0.0343,1.3216,0
2003/9/5 10:15,0,0,1.6271,0,0.5769,0.1793,0.0341,2.0608,0
2003/9/5 10:30,0,0,0,0,0.7121,0.1797,0.0346,0.5162,0
2003/9/5 10:45,0,0,0.4281,0,0.8496,0.1788,0.0341,0.4189,0
2003/9/5 11:00,0,0,0.3306,0,0.8592,0.2192,0.0344,0.426,0
2003/9/5 11:15,0,0,0,0,0.894,0.4082,0.0341,0.4321,0
2003/9/5 11:30,0,0,0,0,0.8257,0.4126,0.0341,0.4376,0